[Iaude] MPEC S162: 2017 SC14 [a=1.51,e=0.33,i=6.3,H=24.7]

mpec at mpcdb1.cfa.harvard.edu mpec at mpcdb1.cfa.harvard.edu
Wed Sep 27 11:21:21 EDT 2017


M.P.E.C. 2017-S162                               Issued 2017 Sept. 27, 15:16 UT
 
     The Minor Planet Electronic Circulars contain information on unusual
         minor planets and routine data on comets.  They are published
    on behalf of Division F of the International Astronomical Union by the
          Minor Planet Center, Smithsonian Astrophysical Observatory,
                          Cambridge, MA 02138, U.S.A.

             Prepared using the Tamkin Foundation Computer Network

                              MPC at CFA.HARVARD.EDU
            URL http://www.minorplanetcenter.net/    ISSN 1523-6714


                                   2017 SC14
 
Observations:
     K17S14C* C2017 09 22.42614 00 25 37.924+01 29 45.99         22.1 wLES162F51
     K17S14C  C2017 09 22.43812 00 25 38.940+01 29 19.95         22.1 wLES162F51
     K17S14C  C2017 09 22.45006 00 25 39.964+01 28 53.89         21.8 wLES162F51
     K17S14C KC2017 09 23.25064600 27 08.08 +00 58 54.4          21.8 VuES162H21
     K17S14C KC2017 09 23.25816600 27 08.78 +00 58 37.4          21.8 VuES162H21
     K17S14C KC2017 09 23.26434400 27 09.35 +00 58 23.3          22.2 VuES162H21
     K17S14C KC2017 09 23.30831100 27 12.42 +00 57 49.1          20.7 GUES162W85
     K17S14C KC2017 09 23.31686900 27 13.24 +00 57 29.5          20.9 GUES162W85
     K17S14C KC2017 09 23.32543100 27 14.06 +00 57 10.0          20.9 GUES162W85
     K17S14C _C2017 09 23.42853200 27 28.288+00 52 24.62         20.9 GUES162568
     K17S14C _C2017 09 23.42947600 27 28.371+00 52 22.41         20.8 GUES162568
     K17S14C _C2017 09 23.43041800 27 28.457+00 52 20.22         20.7 GUES162568
     K17S14C _C2017 09 23.43136800 27 28.540+00 52 18.09         20.8 GUES162568
     K17S14C _C2017 09 23.43231600 27 28.625+00 52 15.89         20.6 GUES162568
     K17S14C  C2017 09 25.44335 00 31 25.847-00 29 09.64         21.5 wLES162F51
     K17S14C  C2017 09 25.45605 00 31 27.096-00 29 42.07         21.2 wLES162F51
     K17S14C  C2017 09 25.46875 00 31 28.350-00 30 14.62         21.9 wLES162F51
     K17S14C  C2017 09 25.98455 00 32 31.96 -00 52 56.2          20.8 RvES162B18
     K17S14C  C2017 09 25.98567 00 32 32.08 -00 52 59.8          20.9 RvES162B18
     K17S14C  C2017 09 25.98903 00 32 32.47 -00 53 08.3          20.8 RvES162B18
     K17S14C  C2017 09 26.39227 00 33 27.217-01 10 41.21         21.1 wLES162F51
     K17S14C  C2017 09 26.41587 00 33 29.704-01 11 44.97         20.9 wLES162F51
     K17S14C KC2017 09 26.42051 00 33 27.45 -01 12 08.4          21.8 RoES162291
     K17S14C KC2017 09 26.42296 00 33 27.74 -01 12 15.0          22.1 RoES162291
     K17S14C KC2017 09 26.42541 00 33 28.06 -01 12 22.2          21.4 RoES162291
     K17S14C  C2017 09 26.42762 00 33 30.937-01 12 16.66         21.0 wLES162F51
 
Observer details:
291 LPL/Spacewatch II.  Observer J. V. Scotti.  1.8-m f/2.7 reflector + CCD.
568 Mauna Kea.  Observers R. J. Wainscoat, D. Woodworth.  Measurers M. Micheli,
    R. J. Wainscoat.  3.6-m Canada-France-Hawaii Telescope + CCD.
B18 Terskol.  Observers A. Sergeev, M. Andreev, A. Bondar, V. Godunova.
    Measurer M. Andreev.
F51 Pan-STARRS 1, Haleakala.  Observers J. Bulger, T. Lowe, A. Schultz,
    M. Willman.  Measurers K. Chambers, S. Chastel, L. Denneau, H. Flewelling,
    M. Huber, E. Lilly, E. Magnier, R. Wainscoat, C. Waters, R. Weryk.  1.8-m
    Ritchey-Chretien + CCD.
H21 Astronomical Research Observatory, Westfield.  Observer R. Holmes.
    Measurers S. Foglia, L. Buzzi, T. Linder, R. Holmes.  1.3-m f/4.0
    astrograph + CCD.
W85 Cerro Tololo-LCO A.  Observers T. Lister, S. Greenstreet, E. Gomez.
    Measurer T. Lister.  1.0-m f/8 Ritchey-Chretien + CCD.
 
Orbital elements:
2017 SC14                                                Earth MOID = 0.0793 AU
Epoch 2017 Sept. 4.0 TT = JDT 2458000.5                 MPC
M 318.71849              (2000.0)            P               Q
n   0.53320893     Peri.  241.26107     +0.49753957     -0.86743872
a   1.5061600      Node   178.89488     +0.82911521     +0.47484094
e   0.3265901      Incl.    6.27586     +0.25499479     +0.14858045
P   1.85           H   24.7           G   0.15           U   7
Residuals in seconds of arc
170922 F51  0.0   0.0     170923 568  0.1+  0.2-    170925 B18  0.2-  0.5-
170922 F51  0.1-  0.0     170923 568  0.1+  0.2-    170925 B18  0.1+  0.2-
170922 F51  0.0   0.0     170923 568  0.1+  0.2-    170926 F51  0.0   0.2+
170923 H21  0.2+  0.2+    170923 568  0.1+  0.2-    170926 F51  0.0   0.0
170923 H21  0.2+  0.3+    170923 568  0.1+  0.2-    170926 291  0.3-  0.0
170923 H21  0.1+  0.3+    170925 F51  0.2+  0.0     170926 291  0.1-  0.0
170923 W85  0.1-  0.1-    170925 F51  0.0   0.1+    170926 291  0.6+  0.6-
170923 W85  0.0   0.1-    170925 F51  0.2-  0.1+    170926 F51  0.0   0.0
170923 W85  0.0   0.0     170925 B18  0.1-  0.1+

Ephemeris:
2017 SC14                a,e,i = 1.51, 0.33, 6                   q = 1.0143
Date    TT    R. A. (2000) Decl.     Delta      r     Elong.  Phase     V
2017 08 28    23 53 31.6 +08 49 52   0.2887  1.2711   151.3    22.4    23.6
...
2017 09 12    00 10 06.9 +06 10 49   0.2016  1.2013   163.7    13.6    22.4
...
2017 09 20    00 21 28.7 +02 52 13   0.1636  1.1661   170.9     7.8    21.7
...
2017 09 26    00 32 35.5 -00 52 51   0.1391  1.1412   174.1     5.2    21.1
2017 09 27    00 34 45.8 -01 37 56   0.1354  1.1371   173.9     5.3    21.1
2017 09 28    00 37 02.7 -02 25 22   0.1318  1.1331   173.5     5.7    21.0
...
2017 10 04    00 53 31.9 -08 03 00   0.1123  1.1102   167.2    11.5    20.9
...
2017 10 12    01 25 49.1 -18 02 22   0.09277 1.0824   154.3    23.6    20.8
...
2017 10 27    03 16 58.5 -39 32 27   0.07914 1.0415   125.2    51.3    21.2

A. U. Tomatic                (C) Copyright 2017 MPC           M.P.E.C. 2017-S162




More information about the Iaude mailing list